contact:dominique.lefevre@mio.osupytheas.fr, maurice.libes@osupytheas.fr, didier.mallarino@osupytheas.fr
Project:EMSO http://www.emso-fr.org/EMSO-France
Depth: 2436.0 m
Title:EMSO Ligure Ouest : Data MII capteur CSTAR
DateTime,Latitude,Longitude,Instrument_Serial,Reference_Counts,Signal_Counts,Corrected_Signal_raw_counts,Calculated_Beam_c_inverse_meters,Internal_thermistor_counts
DateTime,Latitude,Longitude,Instrument_Serial,Reference_Counts,Signal_Counts,Corrected_Signal_raw_counts,Calculated_Beam_c_inverse_meters,Internal_thermistor_counts
2023-05-16T00:01:35,42.805,6.029,CST-1368DR,4296,4687,11581,01.196,552
2023-05-16T00:04:37,42.805,6.029,CST-1368DR,4296,4685,11577,01.197,552
2023-05-16T00:07:38,42.805,6.029,CST-1368DR,4297,4687,11579,01.196,552
2023-05-16T00:10:40,42.805,6.029,CST-1368DR,4296,4684,11576,01.197,552
2023-05-16T00:13:41,42.805,6.029,CST-1368DR,4296,4686,11580,01.196,552
2023-05-16T00:16:43,42.805,6.029,CST-1368DR,4297,4684,11573,01.198,552
2023-05-16T00:19:45,42.805,6.029,CST-1368DR,4297,4686,11576,01.197,552
2023-05-16T00:22:46,42.805,6.029,CST-1368DR,4297,4684,11573,01.198,552
2023-05-16T00:25:48,42.805,6.029,CST-1368DR,4296,4685,11576,01.197,552
2023-05-16T00:28:49,42.805,6.029,CST-1368DR,4297,4685,11576,01.197,552
2023-05-16T00:31:51,42.805,6.029,CST-1368DR,4296,4686,11579,01.196,552
2023-05-16T00:34:52,42.805,6.029,CST-1368DR,4296,4681,11567,01.201,552
2023-05-16T00:37:54,42.805,6.029,CST-1368DR,4296,4684,11576,01.197,551
2023-05-16T00:40:56,42.805,6.029,CST-1368DR,4296,4685,11576,01.197,552
2023-05-16T00:43:57,42.805,6.029,CST-1368DR,4296,4686,11579,01.196,552
2023-05-16T00:46:59,42.805,6.029,CST-1368DR,4296,4687,11582,01.195,552
2023-05-16T00:50:00,42.805,6.029,CST-1368DR,4297,4687,11579,01.196,552
2023-05-16T00:53:02,42.805,6.029,CST-1368DR,4296,4685,11576,01.197,552
2023-05-16T00:56:04,42.805,6.029,CST-1368DR,4297,4688,11582,01.195,552
2023-05-16T00:59:05,42.805,6.029,CST-1368DR,4297,4687,11579,01.196,552
2023-05-16T01:02:07,42.805,6.029,CST-1368DR,4297,4685,11576,01.197,552
2023-05-16T01:05:08,42.805,6.029,CST-1368DR,4296,4685,11578,01.197,552
2023-05-16T01:08:10,42.805,6.029,CST-1368DR,4297,4687,11579,01.196,552
2023-05-16T01:11:12,42.805,6.029,CST-1368DR,4297,4688,11582,01.195,552
2023-05-16T01:14:13,42.805,6.029,CST-1368DR,4297,4687,11580,01.196,552
2023-05-16T01:17:15,42.805,6.029,CST-1368DR,4297,4693,11594,01.191,552
2023-05-16T01:20:16,42.805,6.029,CST-1368DR,4296,4686,11579,01.196,552
2023-05-16T01:23:18,42.805,6.029,CST-1368DR,4297,4689,11584,01.195,551
2023-05-16T01:26:20,42.805,6.029,CST-1368DR,4296,4688,11585,01.194,552
2023-05-16T01:29:21,42.805,6.029,CST-1368DR,4297,4685,11574,01.198,552
2023-05-16T01:32:23,42.805,6.029,CST-1368DR,4296,4688,11586,01.194,552
2023-05-16T01:35:24,42.805,6.029,CST-1368DR,4296,4687,11581,01.196,552
2023-05-16T01:38:26,42.805,6.029,CST-1368DR,4297,4688,11581,01.196,552
2023-05-16T01:41:27,42.805,6.029,CST-1368DR,4297,4685,11575,01.198,552
2023-05-16T01:44:29,42.805,6.029,CST-1368DR,4296,4683,11573,01.198,552
2023-05-16T01:47:31,42.805,6.029,CST-1368DR,4296,4683,11573,01.198,552
2023-05-16T01:50:32,42.805,6.029,CST-1368DR,4296,4685,11578,01.197,552
2023-05-16T01:53:34,42.805,6.029,CST-1368DR,4296,4684,11575,01.198,552
2023-05-16T01:56:35,42.805,6.029,CST-1368DR,4296,4685,11576,01.197,552
2023-05-16T01:59:37,42.805,6.029,CST-1368DR,4296,4680,11565,01.201,552
2023-05-16T02:02:38,42.805,6.029,CST-1368DR,4296,4680,11566,01.201,552
2023-05-16T02:05:40,42.805,6.029,CST-1368DR,4296,4679,11563,01.202,552
2023-05-16T02:08:42,42.805,6.029,CST-1368DR,4296,4679,11562,01.202,552
2023-05-16T02:11:43,42.805,6.029,CST-1368DR,4296,4679,11563,01.202,552
2023-05-16T02:14:45,42.805,6.029,CST-1368DR,4296,4684,11576,01.197,552
2023-05-16T02:17:46,42.805,6.029,CST-1368DR,4296,4681,11568,01.200,552
2023-05-16T02:20:48,42.805,6.029,CST-1368DR,4296,4682,11570,01.200,552
2023-05-16T02:23:50,42.805,6.029,CST-1368DR,4297,4684,11573,01.198,552
2023-05-16T02:26:51,42.805,6.029,CST-1368DR,4296,4679,11563,01.202,552
2023-05-16T02:29:53,42.805,6.029,CST-1368DR,4296,4683,11572,01.199,552
2023-05-16T02:32:54,42.805,6.029,CST-1368DR,4296,4683,11572,01.199,552
2023-05-16T02:35:56,42.805,6.029,CST-1368DR,4296,4682,11569,01.200,552
2023-05-16T02:38:57,42.805,6.029,CST-1368DR,4297,4686,11578,01.197,552
2023-05-16T02:41:59,42.805,6.029,CST-1368DR,4296,4685,11578,01.197,552
2023-05-16T02:45:01,42.805,6.029,CST-1368DR,4297,4686,11577,01.197,552
2023-05-16T02:48:02,42.805,6.029,CST-1368DR,4296,4684,11575,01.198,552
2023-05-16T02:51:04,42.805,6.029,CST-1368DR,4296,4685,11577,01.197,552
2023-05-16T02:54:05,42.805,6.029,CST-1368DR,4296,4686,11580,01.196,552
2023-05-16T02:57:07,42.805,6.029,CST-1368DR,4296,4683,11573,01.198,552
2023-05-16T03:00:08,42.805,6.029,CST-1368DR,4296,4683,11573,01.198,551
2023-05-16T03:03:10,42.805,6.029,CST-1368DR,4296,4683,11572,01.199,552
2023-05-16T03:06:12,42.805,6.029,CST-1368DR,4296,4685,11578,01.197,552
2023-05-16T03:09:13,42.805,6.029,CST-1368DR,4296,4684,11574,01.198,552
2023-05-16T03:12:15,42.805,6.029,CST-1368DR,4296,4683,11573,01.198,552
2023-05-16T03:15:16,42.805,6.029,CST-1368DR,4296,4683,11573,01.198,552
2023-05-16T03:18:18,42.805,6.029,CST-1368DR,4296,4682,11569,01.200,551
2023-05-16T03:21:20,42.805,6.029,CST-1368DR,4296,4684,11575,01.198,552
2023-05-16T03:24:21,42.805,6.029,CST-1368DR,4296,4684,11574,01.198,552
2023-05-16T03:27:23,42.805,6.029,CST-1368DR,4296,4683,11573,01.198,552
2023-05-16T03:30:24,42.805,6.029,CST-1368DR,4296,4682,11570,01.200,552
2023-05-16T03:33:26,42.805,6.029,CST-1368DR,4296,4683,11571,01.199,552
2023-05-16T03:36:27,42.805,6.029,CST-1368DR,4296,4684,11575,01.198,552
2023-05-16T03:39:29,42.805,6.029,CST-1368DR,4296,4684,11575,01.198,552
2023-05-16T03:42:31,42.805,6.029,CST-1368DR,4296,4684,11576,01.197,552
2023-05-16T03:45:32,42.805,6.029,CST-1368DR,4296,4686,11580,01.196,552
2023-05-16T03:48:34,42.805,6.029,CST-1368DR,4296,4682,11571,01.199,552
2023-05-16T03:51:35,42.805,6.029,CST-1368DR,4296,4684,11574,01.198,552
2023-05-16T03:54:37,42.805,6.029,CST-1368DR,4296,4685,11578,01.197,552
2023-05-16T03:57:38,42.805,6.029,CST-1368DR,4296,4682,11570,01.200,552
2023-05-16T04:00:40,42.805,6.029,CST-1368DR,4296,4682,11571,01.199,552
2023-05-16T04:03:42,42.805,6.029,CST-1368DR,4296,4683,11573,01.198,552
2023-05-16T04:06:43,42.805,6.029,CST-1368DR,4296,4686,11579,01.196,552
2023-05-16T04:09:45,42.805,6.029,CST-1368DR,4296,4684,11574,01.198,552
2023-05-16T04:12:46,42.805,6.029,CST-1368DR,4296,4687,11583,01.195,552
2023-05-16T04:15:48,42.805,6.029,CST-1368DR,4296,4684,11575,01.198,552
2023-05-16T04:18:50,42.805,6.029,CST-1368DR,4296,4685,11578,01.197,552
2023-05-16T04:21:51,42.805,6.029,CST-1368DR,4296,4682,11571,01.199,552
2023-05-16T04:24:53,42.805,6.029,CST-1368DR,4296,4682,11570,01.200,552
2023-05-16T04:27:54,42.805,6.029,CST-1368DR,4296,4687,11581,01.196,552
2023-05-16T04:30:56,42.805,6.029,CST-1368DR,4296,4689,11588,01.193,552
2023-05-16T04:33:57,42.805,6.029,CST-1368DR,4296,4690,11589,01.193,552
2023-05-16T04:36:59,42.805,6.029,CST-1368DR,4296,4688,11585,01.194,552
2023-05-16T04:40:01,42.805,6.029,CST-1368DR,4296,4687,11583,01.195,552
2023-05-16T04:43:02,42.805,6.029,CST-1368DR,4296,4689,11587,01.194,552
2023-05-16T04:46:04,42.805,6.029,CST-1368DR,4296,4691,11592,01.192,552
2023-05-16T04:49:05,42.805,6.029,CST-1368DR,4296,4684,11574,01.198,552
2023-05-16T04:52:07,42.805,6.029,CST-1368DR,4296,4682,11570,01.200,552
2023-05-16T04:55:08,42.805,6.029,CST-1368DR,4296,4683,11571,01.199,552
2023-05-16T04:58:10,42.805,6.029,CST-1368DR,4296,4692,11596,01.191,552
2023-05-16T05:01:12,42.805,6.029,CST-1368DR,4296,4693,11597,01.190,552
2023-05-16T05:04:13,42.805,6.029,CST-1368DR,4296,4687,11582,01.195,552
2023-05-16T05:07:15,42.805,6.029,CST-1368DR,4296,4685,11578,01.197,552
2023-05-16T05:10:16,42.805,6.029,CST-1368DR,4296,4685,11578,01.197,552
2023-05-16T05:13:18,42.805,6.029,CST-1368DR,4296,4682,11571,01.199,552
2023-05-16T05:16:19,42.805,6.029,CST-1368DR,4296,4685,11576,01.197,551
2023-05-16T05:19:21,42.805,6.029,CST-1368DR,4296,4696,11605,01.187,552
2023-05-16T05:22:23,42.805,6.029,CST-1368DR,4296,4688,11584,01.195,552
2023-05-16T05:25:24,42.805,6.029,CST-1368DR,4296,4694,11599,01.190,551
2023-05-16T05:28:26,42.805,6.029,CST-1368DR,4296,4694,11599,01.190,552
2023-05-16T05:31:27,42.805,6.029,CST-1368DR,4296,4689,11586,01.194,552
2023-05-16T05:34:29,42.805,6.029,CST-1368DR,4296,4691,11593,01.192,552
2023-05-16T05:37:31,42.805,6.029,CST-1368DR,4296,4699,11611,01.185,552
2023-05-16T05:40:32,42.805,6.029,CST-1368DR,4296,4693,11597,01.190,552
2023-05-16T05:43:34,42.805,6.029,CST-1368DR,4296,4693,11597,01.190,551
2023-05-16T05:46:35,42.805,6.029,CST-1368DR,4296,4688,11584,01.195,552
2023-05-16T05:49:37,42.805,6.029,CST-1368DR,4296,4696,11605,01.187,552
2023-05-16T05:52:38,42.805,6.029,CST-1368DR,4296,4701,11616,01.184,552
2023-05-16T05:55:40,42.805,6.029,CST-1368DR,4296,4688,11584,01.195,552
2023-05-16T05:58:42,42.805,6.029,CST-1368DR,4296,4682,11571,01.199,552
2023-05-16T06:01:43,42.805,6.029,CST-1368DR,4296,4686,11580,01.196,552
2023-05-16T06:04:45,42.805,6.029,CST-1368DR,4296,4699,11612,01.185,552
2023-05-16T06:07:46,42.805,6.029,CST-1368DR,4296,4695,11602,01.188,552
2023-05-16T06:10:48,42.805,6.029,CST-1368DR,4296,4700,11614,01.184,552
2023-05-16T06:13:49,42.805,6.029,CST-1368DR,4296,4696,11604,01.188,552
2023-05-16T06:16:51,42.805,6.029,CST-1368DR,4296,4701,11616,01.184,552
2023-05-16T06:19:53,42.805,6.029,CST-1368DR,4296,4703,11622,01.182,552
2023-05-16T06:22:54,42.805,6.029,CST-1368DR,4296,4702,11618,01.183,551
2023-05-16T06:25:56,42.805,6.029,CST-1368DR,4296,4702,11619,01.183,552
2023-05-16T06:28:57,42.805,6.029,CST-1368DR,4296,4693,11597,01.190,552
2023-05-16T06:32:01,42.805,6.029,CST-1368DR,4296,4688,11586,01.194,552
2023-05-16T06:35:03,42.805,6.029,CST-1368DR,4296,4684,11576,01.197,552
2023-05-16T06:38:04,42.805,6.029,CST-1368DR,4296,4700,11615,01.184,551
2023-05-16T06:41:06,42.805,6.029,CST-1368DR,4296,4700,11613,01.185,552
2023-05-16T06:44:08,42.805,6.029,CST-1368DR,4296,4702,11619,01.183,552
2023-05-16T06:47:09,42.805,6.029,CST-1368DR,4296,4688,11586,01.194,552
2023-05-16T06:50:11,42.805,6.029,CST-1368DR,4296,4690,11589,01.193,552
2023-05-16T06:53:12,42.805,6.029,CST-1368DR,4296,4693,11597,01.190,552
2023-05-16T06:56:14,42.805,6.029,CST-1368DR,4296,4686,11581,01.196,552
2023-05-16T06:59:16,42.805,6.029,CST-1368DR,4296,4695,11603,01.188,552
2023-05-16T07:02:17,42.805,6.029,CST-1368DR,4296,4692,11594,01.191,552
2023-05-16T07:05:19,42.805,6.029,CST-1368DR,4296,4701,11616,01.184,552
2023-05-16T07:08:20,42.805,6.029,CST-1368DR,4296,4685,11578,01.197,552
2023-05-16T07:11:22,42.805,6.029,CST-1368DR,4296,4683,11573,01.198,552
2023-05-16T07:14:23,42.805,6.029,CST-1368DR,4296,4689,11588,01.193,552
2023-05-16T07:17:25,42.805,6.029,CST-1368DR,4296,4683,11573,01.198,551
2023-05-16T07:20:27,42.805,6.029,CST-1368DR,4296,4682,11570,01.200,552
2023-05-16T07:23:28,42.805,6.029,CST-1368DR,4296,4684,11576,01.197,552
2023-05-16T07:26:30,42.805,6.029,CST-1368DR,4296,4699,11612,01.185,552
2023-05-16T07:29:31,42.805,6.029,CST-1368DR,4296,4694,11599,01.190,552
2023-05-16T07:32:33,42.805,6.029,CST-1368DR,4296,4685,11577,01.197,552
2023-05-16T07:35:34,42.805,6.029,CST-1368DR,4296,4692,11594,01.191,552
2023-05-16T07:38:36,42.805,6.029,CST-1368DR,4296,4684,11574,01.198,552
2023-05-16T07:41:38,42.805,6.029,CST-1368DR,4296,4683,11573,01.198,552
2023-05-16T07:44:39,42.805,6.029,CST-1368DR,4296,4684,11575,01.198,552
2023-05-16T07:47:41,42.805,6.029,CST-1368DR,4296,4690,11589,01.193,552
2023-05-16T07:50:42,42.805,6.029,CST-1368DR,4296,4681,11568,01.200,552
2023-05-16T07:53:44,42.805,6.029,CST-1368DR,4296,4681,11567,01.201,552
2023-05-16T07:56:46,42.805,6.029,CST-1368DR,4296,4680,11566,01.201,552
2023-05-16T07:59:47,42.805,6.029,CST-1368DR,4296,4681,11568,01.200,552
2023-05-16T08:02:49,42.805,6.029,CST-1368DR,4296,4680,11565,01.201,552
2023-05-16T08:05:50,42.805,6.029,CST-1368DR,4296,4698,11609,01.186,552
2023-05-16T08:08:52,42.805,6.029,CST-1368DR,4296,4687,11581,01.196,552
2023-05-16T08:11:53,42.805,6.029,CST-1368DR,4296,4680,11566,01.201,552
2023-05-16T08:14:55,42.805,6.029,CST-1368DR,4296,4682,11571,01.199,552
2023-05-16T08:17:57,42.805,6.029,CST-1368DR,4296,4687,11581,01.196,552
2023-05-16T08:20:58,42.805,6.029,CST-1368DR,4296,4687,11582,01.195,552
2023-05-16T08:24:00,42.805,6.029,CST-1368DR,4296,4687,11583,01.195,552
2023-05-16T08:27:01,42.805,6.029,CST-1368DR,4296,4692,11594,01.191,552
2023-05-16T08:30:03,42.805,6.029,CST-1368DR,4296,4701,11617,01.183,552
2023-05-16T08:33:04,42.805,6.029,CST-1368DR,4296,4702,11620,01.182,552
2023-05-16T08:36:06,42.805,6.029,CST-1368DR,4296,4703,11621,01.182,552
2023-05-16T08:39:08,42.805,6.029,CST-1368DR,4296,4695,11603,01.188,552
2023-05-16T08:42:09,42.805,6.029,CST-1368DR,4296,4688,11585,01.194,552
2023-05-16T08:45:11,42.805,6.029,CST-1368DR,4296,4694,11601,01.189,551
2023-05-16T08:48:12,42.805,6.029,CST-1368DR,4296,4686,11581,01.196,552
2023-05-16T08:51:14,42.805,6.029,CST-1368DR,4296,4684,11574,01.198,552
2023-05-16T08:54:15,42.805,6.029,CST-1368DR,4296,4686,11580,01.196,552
2023-05-16T08:57:17,42.805,6.029,CST-1368DR,4296,4684,11575,01.198,552
2023-05-16T09:00:19,42.805,6.029,CST-1368DR,4296,4688,11586,01.194,552
2023-05-16T09:03:20,42.805,6.029,CST-1368DR,4296,4693,11597,01.190,552
2023-05-16T09:06:22,42.805,6.029,CST-1368DR,4296,4687,11582,01.195,552
2023-05-16T09:09:23,42.805,6.029,CST-1368DR,4296,4687,11581,01.196,552
2023-05-16T09:12:25,42.805,6.029,CST-1368DR,4296,4690,11590,01.193,552
2023-05-16T09:15:27,42.805,6.029,CST-1368DR,4296,4687,11581,01.196,552
2023-05-16T09:18:28,42.805,6.029,CST-1368DR,4296,4683,11572,01.199,552
2023-05-16T09:21:30,42.805,6.029,CST-1368DR,4296,4689,11588,01.193,552
2023-05-16T09:24:31,42.805,6.029,CST-1368DR,4296,4685,11578,01.197,552
2023-05-16T09:27:33,42.805,6.029,CST-1368DR,4296,4688,11585,01.194,552
2023-05-16T09:30:34,42.805,6.029,CST-1368DR,4296,4683,11573,01.198,552
2023-05-16T09:33:36,42.805,6.029,CST-1368DR,4296,4686,11579,01.196,552
2023-05-16T09:36:38,42.805,6.029,CST-1368DR,4296,4683,11573,01.198,552
2023-05-16T09:39:39,42.805,6.029,CST-1368DR,4296,4688,11584,01.195,552
2023-05-16T09:42:41,42.805,6.029,CST-1368DR,4296,4688,11586,01.194,552
2023-05-16T09:45:42,42.805,6.029,CST-1368DR,4296,4685,11578,01.197,552
2023-05-16T09:48:44,42.805,6.029,CST-1368DR,4296,4692,11594,01.191,552
2023-05-16T09:51:46,42.805,6.029,CST-1368DR,4296,4688,11586,01.194,552
2023-05-16T09:54:47,42.805,6.029,CST-1368DR,4296,4683,11572,01.199,552
2023-05-16T09:57:49,42.805,6.029,CST-1368DR,4296,4688,11584,01.195,552
2023-05-16T10:00:50,42.805,6.029,CST-1368DR,4296,4686,11580,01.196,552
2023-05-16T10:03:52,42.805,6.029,CST-1368DR,4296,4695,11602,01.188,552
2023-05-16T10:06:53,42.805,6.029,CST-1368DR,4296,4686,11581,01.196,552
2023-05-16T10:09:55,42.805,6.029,CST-1368DR,4296,4690,11589,01.193,552
2023-05-16T10:12:57,42.805,6.029,CST-1368DR,4296,4686,11580,01.196,552
2023-05-16T10:15:58,42.805,6.029,CST-1368DR,4296,4687,11582,01.195,552
2023-05-16T10:19:00,42.805,6.029,CST-1368DR,4296,4684,11574,01.198,552
2023-05-16T10:22:01,42.805,6.029,CST-1368DR,4296,4685,11578,01.197,552
2023-05-16T10:25:03,42.805,6.029,CST-1368DR,4296,4685,11577,01.197,552
2023-05-16T10:28:04,42.805,6.029,CST-1368DR,4296,4688,11586,01.194,551
2023-05-16T10:31:07,42.805,6.029,CST-1368DR,4296,4686,11581,01.196,552
2023-05-16T10:34:08,42.805,6.029,CST-1368DR,4296,4695,11603,01.188,552
2023-05-16T10:37:10,42.805,6.029,CST-1368DR,4296,4695,11601,01.189,552
2023-05-16T10:40:11,42.805,6.029,CST-1368DR,4296,4693,11596,01.191,551
2023-05-16T10:43:13,42.805,6.029,CST-1368DR,4296,4687,11582,01.195,552
2023-05-16T10:46:15,42.805,6.029,CST-1368DR,4296,4685,11578,01.197,552
2023-05-16T10:49:16,42.805,6.029,CST-1368DR,4296,4682,11571,01.199,552
2023-05-16T10:52:18,42.805,6.029,CST-1368DR,4296,4686,11579,01.196,551
2023-05-16T10:55:19,42.805,6.029,CST-1368DR,4296,4686,11579,01.196,551
2023-05-16T10:58:21,42.805,6.029,CST-1368DR,4296,4683,11573,01.198,551
2023-05-16T11:01:22,42.805,6.029,CST-1368DR,4296,4685,11576,01.197,552
2023-05-16T11:04:24,42.805,6.029,CST-1368DR,4296,4683,11571,01.199,552
2023-05-16T11:07:26,42.805,6.029,CST-1368DR,4296,4683,11573,01.198,552
2023-05-16T11:10:27,42.805,6.029,CST-1368DR,4296,4681,11567,01.201,552
2023-05-16T11:13:29,42.805,6.029,CST-1368DR,4296,4687,11582,01.195,552
2023-05-16T11:16:30,42.805,6.029,CST-1368DR,4296,4684,11574,01.198,551
2023-05-16T11:19:32,42.805,6.029,CST-1368DR,4296,4682,11570,01.200,552
2023-05-16T11:22:34,42.805,6.029,CST-1368DR,4296,4684,11575,01.198,552
2023-05-16T11:25:35,42.805,6.029,CST-1368DR,4296,4683,11573,01.198,552
2023-05-16T11:28:37,42.805,6.029,CST-1368DR,4296,4681,11568,01.200,552
2023-05-16T11:31:38,42.805,6.029,CST-1368DR,4296,4685,11577,01.197,552
2023-05-16T11:34:40,42.805,6.029,CST-1368DR,4296,4682,11569,01.200,552
2023-05-16T11:37:41,42.805,6.029,CST-1368DR,4296,4683,11571,01.199,552
2023-05-16T11:40:43,42.805,6.029,CST-1368DR,4296,4685,11578,01.197,552
2023-05-16T11:43:45,42.805,6.029,CST-1368DR,4296,4681,11568,01.200,552
2023-05-16T11:46:46,42.805,6.029,CST-1368DR,4296,4681,11568,01.200,552
2023-05-16T11:49:48,42.805,6.029,CST-1368DR,4296,4686,11580,01.196,552
2023-05-16T11:52:49,42.805,6.029,CST-1368DR,4296,4685,11578,01.197,552
2023-05-16T11:55:51,42.805,6.029,CST-1368DR,4296,4685,11578,01.197,552
2023-05-16T11:58:52,42.805,6.029,CST-1368DR,4296,4689,11588,01.193,552
2023-05-16T12:01:54,42.805,6.029,CST-1368DR,4296,4682,11570,01.200,552
2023-05-16T12:04:56,42.805,6.029,CST-1368DR,4296,4683,11573,01.198,552
2023-05-16T12:07:57,42.805,6.029,CST-1368DR,4296,4682,11570,01.200,552
2023-05-16T12:10:59,42.805,6.029,CST-1368DR,4296,4685,11578,01.197,551
2023-05-16T12:14:00,42.805,6.029,CST-1368DR,4296,4684,11575,01.198,552
2023-05-16T12:17:02,42.805,6.029,CST-1368DR,4296,4682,11571,01.199,551
2023-05-16T12:20:04,42.805,6.029,CST-1368DR,4296,4683,11572,01.199,552
2023-05-16T12:23:05,42.805,6.029,CST-1368DR,4296,4685,11576,01.197,552
2023-05-16T12:26:07,42.805,6.029,CST-1368DR,4296,4685,11578,01.197,551
2023-05-16T12:29:08,42.805,6.029,CST-1368DR,4296,4685,11577,01.197,552
2023-05-16T12:32:10,42.805,6.029,CST-1368DR,4296,4686,11580,01.196,552
2023-05-16T12:35:11,42.805,6.029,CST-1368DR,4296,4684,11574,01.198,552
2023-05-16T12:38:13,42.805,6.029,CST-1368DR,4296,4687,11582,01.195,552
2023-05-16T12:41:15,42.805,6.029,CST-1368DR,4296,4685,11576,01.197,551
2023-05-16T12:44:16,42.805,6.029,CST-1368DR,4296,4685,11578,01.197,552
2023-05-16T12:47:18,42.805,6.029,CST-1368DR,4296,4685,11577,01.197,552
2023-05-16T12:50:19,42.805,6.029,CST-1368DR,4296,4686,11579,01.196,552
2023-05-16T12:53:21,42.805,6.029,CST-1368DR,4296,4685,11577,01.197,552
2023-05-16T12:56:22,42.805,6.029,CST-1368DR,4296,4686,11580,01.196,552
2023-05-16T12:59:24,42.805,6.029,CST-1368DR,4296,4685,11578,01.197,552
2023-05-16T13:02:26,42.805,6.029,CST-1368DR,4296,4685,11576,01.197,552
2023-05-16T13:05:27,42.805,6.029,CST-1368DR,4296,4684,11574,01.198,552
2023-05-16T13:08:29,42.805,6.029,CST-1368DR,4296,4685,11578,01.197,552
2023-05-16T13:11:30,42.805,6.029,CST-1368DR,4296,4683,11571,01.199,552
2023-05-16T13:14:32,42.805,6.029,CST-1368DR,4296,4683,11573,01.198,552
2023-05-16T13:17:34,42.805,6.029,CST-1368DR,4296,4685,11576,01.197,552
2023-05-16T13:20:35,42.805,6.029,CST-1368DR,4296,4685,11577,01.197,552
2023-05-16T13:23:37,42.805,6.029,CST-1368DR,4296,4683,11573,01.198,552
2023-05-16T13:26:38,42.805,6.029,CST-1368DR,4296,4686,11579,01.196,552
2023-05-16T13:29:40,42.805,6.029,CST-1368DR,4296,4683,11571,01.199,552
2023-05-16T13:32:41,42.805,6.029,CST-1368DR,4296,4684,11576,01.197,552
2023-05-16T13:35:43,42.805,6.029,CST-1368DR,4296,4685,11577,01.197,552
2023-05-16T13:38:45,42.805,6.029,CST-1368DR,4296,4683,11573,01.198,552
2023-05-16T13:41:46,42.805,6.029,CST-1368DR,4296,4683,11573,01.198,552
2023-05-16T13:44:48,42.805,6.029,CST-1368DR,4296,4686,11581,01.196,552
2023-05-16T13:47:49,42.805,6.029,CST-1368DR,4296,4684,11574,01.198,552
2023-05-16T13:50:51,42.805,6.029,CST-1368DR,4296,4686,11579,01.196,552
2023-05-16T13:53:52,42.805,6.029,CST-1368DR,4296,4685,11576,01.197,552
2023-05-16T13:56:54,42.805,6.029,CST-1368DR,4296,4686,11580,01.196,552
2023-05-16T13:59:56,42.805,6.029,CST-1368DR,4296,4683,11573,01.198,552
2023-05-16T14:02:57,42.805,6.029,CST-1368DR,4296,4684,11575,01.198,552
2023-05-16T14:05:59,42.805,6.029,CST-1368DR,4296,4685,11578,01.197,551
2023-05-16T14:09:00,42.805,6.029,CST-1368DR,4296,4671,11542,01.209,552
2023-05-16T14:12:02,42.805,6.029,CST-1368DR,4296,4672,11546,01.208,552
2023-05-16T14:15:03,42.805,6.029,CST-1368DR,4296,4671,11542,01.209,552
2023-05-16T14:18:05,42.805,6.029,CST-1368DR,4296,4672,11546,01.208,552
2023-05-16T14:21:07,42.805,6.029,CST-1368DR,4296,4671,11543,01.209,552
2023-05-16T14:24:08,42.805,6.029,CST-1368DR,4296,4672,11545,01.208,552
2023-05-16T14:27:10,42.805,6.029,CST-1368DR,4296,4671,11544,01.209,552
2023-05-16T14:30:13,42.805,6.029,CST-1368DR,4296,4672,11545,01.208,552
2023-05-16T14:33:15,42.805,6.029,CST-1368DR,4296,4673,11547,01.207,552
2023-05-16T14:36:16,42.805,6.029,CST-1368DR,4296,4675,11552,01.206,552
2023-05-16T14:39:18,42.805,6.029,CST-1368DR,4296,4673,11547,01.207,552
2023-05-16T14:42:20,42.805,6.029,CST-1368DR,4296,4673,11549,01.207,552
2023-05-16T14:45:21,42.805,6.029,CST-1368DR,4296,4672,11545,01.208,552
2023-05-16T14:48:23,42.805,6.029,CST-1368DR,4296,4673,11547,01.207,551
2023-05-16T14:51:24,42.805,6.029,CST-1368DR,4296,4673,11549,01.207,552
2023-05-16T14:54:26,42.805,6.029,CST-1368DR,4296,4674,11550,01.206,552
2023-05-16T14:57:27,42.805,6.029,CST-1368DR,4296,4675,11553,01.205,552
2023-05-16T15:00:29,42.805,6.029,CST-1368DR,4296,4674,11549,01.207,552
2023-05-16T15:03:31,42.805,6.029,CST-1368DR,4296,4672,11544,01.209,552
2023-05-16T15:06:32,42.805,6.029,CST-1368DR,4296,4674,11550,01.206,552
2023-05-16T15:09:34,42.805,6.029,CST-1368DR,4296,4676,11554,01.205,551
2023-05-16T15:12:35,42.805,6.029,CST-1368DR,4296,4672,11545,01.208,551
2023-05-16T15:15:37,42.805,6.029,CST-1368DR,4296,4673,11547,01.207,552
2023-05-16T15:18:38,42.805,6.029,CST-1368DR,4296,4674,11549,01.207,552
2023-05-16T15:21:40,42.805,6.029,CST-1368DR,4296,4673,11547,01.207,552
2023-05-16T15:24:42,42.805,6.029,CST-1368DR,4296,4673,11548,01.207,552
2023-05-16T15:27:43,42.805,6.029,CST-1368DR,4296,4675,11552,01.206,552
2023-05-16T15:30:45,42.805,6.029,CST-1368DR,4296,4672,11545,01.208,552
2023-05-16T15:33:46,42.805,6.029,CST-1368DR,4296,4674,11549,01.207,552
2023-05-16T15:36:48,42.805,6.029,CST-1368DR,4296,4674,11550,01.206,552
2023-05-16T15:39:50,42.805,6.029,CST-1368DR,4296,4673,11548,01.207,552
2023-05-16T15:42:51,42.805,6.029,CST-1368DR,4296,4672,11545,01.208,552
2023-05-16T15:45:53,42.805,6.029,CST-1368DR,4296,4672,11546,01.208,552
2023-05-16T15:48:54,42.805,6.029,CST-1368DR,4296,4672,11546,01.208,552
2023-05-16T15:51:56,42.805,6.029,CST-1368DR,4296,4673,11547,01.207,552
2023-05-16T15:54:57,42.805,6.029,CST-1368DR,4296,4671,11542,01.209,551
2023-05-16T15:57:59,42.805,6.029,CST-1368DR,4296,4673,11547,01.207,552
2023-05-16T16:01:01,42.805,6.029,CST-1368DR,4296,4672,11546,01.208,552
2023-05-16T16:04:02,42.805,6.029,CST-1368DR,4296,4672,11546,01.208,552
2023-05-16T16:07:04,42.805,6.029,CST-1368DR,4296,4672,11546,01.208,552
2023-05-16T16:10:05,42.805,6.029,CST-1368DR,4296,4673,11547,01.207,552
2023-05-16T16:13:07,42.805,6.029,CST-1368DR,4296,4673,11547,01.207,552
2023-05-16T16:16:08,42.805,6.029,CST-1368DR,4296,4673,11549,01.207,552
2023-05-16T16:19:10,42.805,6.029,CST-1368DR,4296,4673,11547,01.207,551
2023-05-16T16:22:12,42.805,6.029,CST-1368DR,4296,4672,11546,01.208,552
2023-05-16T16:25:13,42.805,6.029,CST-1368DR,4296,4672,11546,01.208,552
2023-05-16T16:28:15,42.805,6.029,CST-1368DR,4296,4672,11546,01.208,552
2023-05-16T16:31:16,42.805,6.029,CST-1368DR,4296,4675,11552,01.206,552
2023-05-16T16:34:18,42.805,6.029,CST-1368DR,4296,4672,11545,01.208,552
2023-05-16T16:37:20,42.805,6.029,CST-1368DR,4296,4670,11539,01.210,552